Location: Lake Arresoe
(56.0000°N, 12.5000°E)
Time: 22:08:40
(UTC+02:00)

Okean 3 - Pass Details

Date: 16 August 2020
Orbit: 576 x 601 km, 82.5° (Epoch: 01 October)

Event Time Altitude Azimuth Distance (km) Brightness Sun altitude
Rises 23:59:55 0° 338° (NNW) 2,859 8.7 -18.6°
Reaches altitude 10° 00:02:35 10° 322° (NW) 1,954 7.2 -18.7°
Maximum altitude 00:05:43 20° 275° (W) 1,413 5.6 -18.9°
Enters shadow 00:08:29 12° 232° (SW) 1,846 5.8 -19.0°
